Port Huron, MI

9:59 AM EDT on July 21, 2017 (GMT -0400)
Saint Clair County International

Weather History for KPHN - January, 2012

Change the Weather History Date:

Wednesday, January 11, 2012

  Actual Average (KMTC) Record (KMTC)
Temperature  
Mean Temperature 34 °F -  
Max Temperature 44 °F 28 °F 55 °F (2013)
Min Temperature 24 °F 15 °F -2 °F (1999)
Degree Days  
Heating Degree Days 31    
Moisture  
Dew Point 30 °F    
Average Humidity 80    
Maximum Humidity 100    
Minimum Humidity 61    
Precipitation  
Precipitation 0.00 in - - ()
Sea Level Pressure  
Sea Level Pressure 29.74 in    
Wind  
Wind Speed 3 mph (SE)    
Max Wind Speed 9 mph    
Max Gust Speed -    
Visibility 7 miles    
Events      
Averages and records for this station are not official NWS values.
T = Trace of Precipitation, MM = Missing Value Source: NWS Daily Summary

Daily Weather History Graph

Daily Weather History Graph

Search for Another Location

Airport or City:

Trip Planner

Search our weather history database for the weather conditions in past years. The results will help you decide how hot, cold, wet, or windy it might be!

Date:

Astronomy

Jan. 11, 2012 Rise Set
Actual Time 8:00 AM EST 5:16 PM EST
Civil Twilight 7:28 AM EST 5:47 PM EST
Nautical Twilight 6:53 AM EST 6:22 PM EST
Astronomical Twilight 6:19 AM EST 6:57 PM EST
Moon 8:18 PM EST (1/11) 9:07 AM EST (1/11)
Length of Visible Light 10h 19m
Length of Day
9h 15m
Waning Gibbous, 93% of the Moon is Illuminated
Jan 11
Waning Gibbous
Jan 16
Last Quarter
Jan 23
New
Jan 30
First Quarter
Feb 7
Full

Hourly Weather History & Observations

Time (EST) Temp. Windchill Dew Point Humidity Pressure Visibility Wind Dir Wind Speed Gust Speed Precip Events Conditions
12:17 AM 30.2 °F - 28.4 °F 93% 29.88 in 5.0 mi Calm Calm - N/A   Clear
12:38 AM 30.2 °F 26.7 °F 28.4 °F 93% 29.87 in 5.0 mi South 3.5 mph - N/A   Clear
12:58 AM 30.2 °F 26.7 °F 28.4 °F 93% 29.87 in 5.0 mi South 3.5 mph - N/A   Clear
1:17 AM 30.2 °F 26.7 °F 28.4 °F 93% 29.86 in 5.0 mi South 3.5 mph - N/A   Clear
1:38 AM 30.2 °F 25.4 °F 28.4 °F 93% 29.86 in 5.0 mi South 4.6 mph - N/A   Clear
1:57 AM 30.2 °F 24.3 °F 28.4 °F 93% 29.85 in 5.0 mi South 5.8 mph - N/A   Clear
2:18 AM 30.2 °F 24.3 °F 28.4 °F 93% 29.85 in 5.0 mi South 5.8 mph - N/A   Clear
2:38 AM 32.0 °F 27.5 °F 30.2 °F 93% 29.85 in 5.0 mi South 4.6 mph - N/A   Clear
2:57 AM 32.0 °F 27.5 °F 28.4 °F 87% 29.85 in 5.0 mi South 4.6 mph - N/A   Clear
3:17 AM 30.2 °F 26.7 °F 28.4 °F 93% 29.84 in 5.0 mi South 3.5 mph - N/A   Clear
3:38 AM 30.2 °F - 28.4 °F 93% 29.84 in 5.0 mi Calm Calm - N/A   Clear
3:58 AM 30.2 °F - 28.4 °F 93% 29.83 in 5.0 mi Calm Calm - N/A   Clear
4:18 AM 32.0 °F - 28.4 °F 87% 29.82 in 5.0 mi Calm Calm - N/A   Clear
4:38 AM 30.2 °F - 28.4 °F 93% 29.81 in 5.0 mi Calm Calm - N/A   Clear
4:58 AM 30.2 °F - 28.4 °F 93% 29.81 in 5.0 mi Calm Calm - N/A   Clear
5:17 AM 30.2 °F - 28.4 °F 93% 29.82 in 5.0 mi Calm Calm - N/A   Clear
5:38 AM 28.4 °F - 26.6 °F 93% 29.82 in 2.0 mi Calm Calm - N/A   Clear
5:58 AM 26.6 °F - 24.8 °F 93% 29.81 in 1.5 mi Calm Calm - N/A   Mist
6:17 AM 24.8 °F - 24.8 °F 100% 29.82 in 0.8 mi Calm Calm - N/A   Mostly Cloudy
6:38 AM 24.8 °F - 24.8 °F 100% 29.82 in 1.8 mi Calm Calm - N/A   Mist
6:58 AM 26.6 °F - 24.8 °F 93% 29.82 in 0.8 mi Calm Calm - N/A   Mist
7:18 AM 24.8 °F - 23.0 °F 93% 29.81 in 1.8 mi Calm Calm - N/A   Mist
7:38 AM 24.8 °F - 24.8 °F 100% 29.81 in 3.0 mi Calm Calm - N/A   Clear
7:58 AM 26.6 °F - 24.8 °F 93% 29.81 in 1.8 mi Calm Calm - N/A   Mist
8:18 AM 26.6 °F - 24.8 °F 93% 29.80 in 1.5 mi Calm Calm - N/A   Mist
8:37 AM 26.6 °F - 24.8 °F 93% 29.80 in 1.5 mi Calm Calm - N/A   Mist
8:58 AM 28.4 °F - 26.6 °F 93% 29.79 in 2.0 mi Calm Calm - N/A   Clear
9:17 AM 30.2 °F 26.7 °F 30.2 °F 100% 29.80 in 2.0 mi SE 3.5 mph - N/A   Clear
9:38 AM 33.8 °F 30.8 °F 32.0 °F 93% 29.82 in 4.0 mi SSE 3.5 mph - N/A   Clear
9:58 AM 35.6 °F 30.7 °F 32.0 °F 87% 29.82 in 5.0 mi SSE 5.8 mph - N/A   Clear
10:18 AM 37.4 °F 33.8 °F 32.0 °F 81% 29.81 in 5.0 mi SSE 4.6 mph - N/A   Clear
10:37 AM 37.4 °F 34.9 °F 33.8 °F 87% 29.80 in 5.0 mi SE 3.5 mph - N/A   Haze
10:58 AM 39.2 °F 35.0 °F 32.0 °F 75% 29.80 in 7.0 mi SSE 5.8 mph - N/A   Clear
11:18 AM 39.2 °F 35.0 °F 33.8 °F 81% 29.79 in 7.0 mi SSE 5.8 mph - N/A   Clear
11:38 AM 41.0 °F 38.0 °F 33.8 °F 76% 29.78 in 10.0 mi SE 4.6 mph - N/A   Clear
11:58 AM 42.8 °F 39.3 °F 33.8 °F 70% 29.76 in 10.0 mi SSE 5.8 mph - N/A   Clear
12:17 PM 44.6 °F 41.4 °F 32.0 °F 61% 29.75 in 10.0 mi SSE 5.8 mph - N/A   Clear
12:38 PM 44.6 °F 42.2 °F 32.0 °F 61% 29.73 in 10.0 mi SE 4.6 mph - N/A   Clear
12:58 PM 44.6 °F 43.1 °F 32.0 °F 61% 29.71 in 10.0 mi ESE 3.5 mph - N/A   Clear
1:18 PM 44.6 °F 40.7 °F 32.0 °F 61% 29.70 in 10.0 mi ESE 6.9 mph - N/A   Clear
1:38 PM 44.6 °F 41.4 °F 32.0 °F 61% 29.70 in 10.0 mi SE 5.8 mph - N/A   Clear
1:58 PM 44.6 °F 42.2 °F 32.0 °F 61% 29.69 in 10.0 mi East 4.6 mph - N/A   Clear
2:18 PM 44.6 °F 41.4 °F 32.0 °F 61% 29.68 in 10.0 mi ESE 5.8 mph - N/A   Clear
2:37 PM 44.6 °F 40.7 °F 32.0 °F 61% 29.68 in 10.0 mi ESE 6.9 mph - N/A   Clear
2:58 PM 44.6 °F 41.4 °F 33.8 °F 66% 29.66 in 10.0 mi East 5.8 mph - N/A   Clear
3:18 PM 44.6 °F 42.2 °F 33.8 °F 66% 29.65 in 10.0 mi East 4.6 mph - N/A   Clear
3:38 PM 42.8 °F 40.1 °F 33.8 °F 70% 29.65 in 10.0 mi East 4.6 mph - N/A   Clear
3:57 PM 42.8 °F 39.3 °F 33.8 °F 70% 29.64 in 10.0 mi East 5.8 mph - N/A   Clear
4:18 PM 42.8 °F 40.1 °F 33.8 °F 70% 29.64 in 10.0 mi East 4.6 mph - N/A   Clear
4:37 PM 42.8 °F 38.6 °F 33.8 °F 70% 29.64 in 10.0 mi East 6.9 mph - N/A   Scattered Clouds
4:53 PM 42.8 °F 38.6 °F 32.0 °F 66% 29.64 in 10.0 mi ESE 6.9 mph - N/A   Scattered Clouds
5:25 PM 41.0 °F 35.2 °F 30.2 °F 65% 29.64 in 10.0 mi ESE 9.2 mph - N/A   Mostly Cloudy
5:45 PM 41.0 °F 35.8 °F 30.2 °F 65% 29.63 in 10.0 mi East 8.1 mph - N/A   Scattered Clouds
6:05 PM 41.0 °F 35.2 °F 28.4 °F 61% 29.62 in 10.0 mi East 9.2 mph - N/A   Clear
6:17 PM 41.0 °F 35.2 °F 28.4 °F 61% 29.62 in 10.0 mi ESE 9.2 mph - N/A   Clear
6:19 PM 41.0 °F 35.2 °F 28.4 °F 61% 29.62 in 10.0 mi East 9.2 mph - N/A   Clear
6:52 PM 41.0 °F 35.8 °F 30.2 °F 65% 29.61 in 10.0 mi East 8.1 mph - N/A   Clear
7:17 PM 41.0 °F 35.8 °F 30.2 °F 65% 29.60 in 10.0 mi East 8.1 mph - N/A   Clear
7:38 PM 41.0 °F 36.4 °F 32.0 °F 70% 29.59 in 10.0 mi East 6.9 mph - N/A   Scattered Clouds
7:58 PM 41.0 °F 35.2 °F 32.0 °F 70% 29.59 in 10.0 mi East 9.2 mph - N/A   Mostly Cloudy
8:18 PM 39.2 °F 34.2 °F 32.0 °F 75% 29.58 in 10.0 mi East 6.9 mph - N/A   Mostly Cloudy
8:38 PM 39.2 °F 34.2 °F 32.0 °F 75% 29.58 in 10.0 mi ENE 6.9 mph - N/A   Overcast
8:58 PM 39.2 °F 34.2 °F 32.0 °F 75% 29.57 in 10.0 mi East 6.9 mph - N/A   Overcast
9:18 PM 39.2 °F 35.0 °F 32.0 °F 75% 29.57 in 10.0 mi ENE 5.8 mph - N/A   Overcast
9:37 PM 39.2 °F 35.9 °F 32.0 °F 75% 29.56 in 10.0 mi ENE 4.6 mph - N/A   Overcast
9:58 PM 39.2 °F 35.9 °F 32.0 °F 75% 29.56 in 10.0 mi East 4.6 mph - N/A   Overcast
10:17 PM 39.2 °F 34.2 °F 32.0 °F 75% 29.55 in 10.0 mi ENE 6.9 mph - N/A   Overcast
10:38 PM 39.2 °F 34.2 °F 32.0 °F 75% 29.53 in 10.0 mi ENE 6.9 mph - N/A   Overcast
10:58 PM 39.2 °F 33.6 °F 32.0 °F 75% 29.52 in 10.0 mi NE 8.1 mph - N/A   Overcast
11:17 PM 39.2 °F 35.0 °F 32.0 °F 75% 29.51 in 10.0 mi NE 5.8 mph - N/A   Overcast
11:38 PM 39.2 °F 35.0 °F 33.8 °F 81% 29.51 in 10.0 mi ENE 5.8 mph - N/A   Light Drizzle
11:58 PM 37.4 °F 32.8 °F 33.8 °F 87% 29.51 in 5.0 mi ENE 5.8 mph - N/A Rain Light Rain